Home > Weather > Vitória > Past weeks

Flag for Brazil Weather for the Past 2 Weeks in Vitória, Espírito Santo, Brazil

Now
63 °F

Clear.


Feels Like: 63 °F
Forecast: 62 / 79 °F
Wind: 8 mph from Southeast

Location: Belo Horizonte Airport

Current Time: May 2, 2016 at 12:49:09 AM

Latest Report: May 2, 2016 at 12:00 AM


Visibility: 10 mi

Pressure: 30.15 "Hg

Humidity: 88%

Dew Point: 59 °F

Location of VitóriaLocation

Historic Weather in Vitória — Graph

°F

Vitória Temperature Yesterday

Maximum temperature yesterday: 81 °F (at 2:00 PM)
Minimum temperature yesterday: 61 °F (at 6:00 AM)
Average temperature yesterday: 68 °F

High & Low Weather Summary for the Past Weeks

 TemperatureHumidityPressure
High86 °F (Apr 25, 3:00 PM)100% (Apr 26, 3:00 AM)30.27 "Hg (Apr 26, 3:00 AM)
Low59 °F (Apr 24, 7:00 AM)32% (Apr 23, 5:00 PM)29.92 "Hg (Apr 26, 2:00 PM)
Average71 °F69%30.09 "Hg
* Reported Apr 16 11:00 PM — May 1 11:00 PM, Vitória, Weather by CustomWeather, © 2016

Note: Actual official high and low records may vary slightly from our data, if they occured in-between our weather recording intervals... More about our weather records

Advertising

Vitória Weather History for the Previous 24 Hours

Scroll right to see more
 ConditionsComfort  
Time TempWeatherWind HumidityBarometerVisibility
11:00 PM
Sun, May 1
63 °FClear.8 mph94%30.12 "Hg10 mi
10:00 PM64 °FClear.6 mph88%30.15 "Hg10 mi
9:00 PM64 °FClear.6 mph78%30.15 "Hg10 mi
8:00 PM68 °FClear.6 mph60%30.12 "Hg10 mi
7:00 PM70 °FClear.3 mph53%30.09 "Hg10 mi
6:00 PM72 °FClear.5 mph50%30.09 "Hg10 mi
5:00 PM75 °FSunny.9 mph44%30.07 "Hg10 mi
4:00 PM79 °FSunny.9 mph39%30.04 "Hg10 mi
3:00 PM79 °FScattered clouds.7 mph39%30.04 "HgN/A
2:00 PM81 °FScattered clouds.7 mph42%30.07 "HgN/A
1:00 PM77 °FScattered clouds.8 mph47%30.07 "HgN/A
12:00 PM75 °FScattered clouds.5 mph57%30.09 "HgN/A
11:00 AM73 °FPassing clouds.3 mph57%30.12 "HgN/A
10:00 AM70 °FPassing clouds.6 mph69%30.15 "HgN/A
9:00 AM66 °FPartly sunny.2 mph73%30.15 "HgN/A
8:00 AM63 °FPartly sunny.3 mph83%30.12 "HgN/A
7:00 AM63 °FPassing clouds.5 mph83%30.12 "HgN/A
6:00 AM61 °FPassing clouds.3 mph88%30.09 "HgN/A
5:00 AM63 °FPassing clouds.5 mph88%30.07 "HgN/A
4:00 AM63 °FPartly cloudy.3 mph94%30.04 "HgN/A
3:00 AM63 °FPartly cloudy.5 mph94%30.04 "HgN/A
2:00 AM63 °FPartly cloudy.2 mph94%30.07 "HgN/A
1:00 AM63 °FPartly cloudy.No wind100%30.07 "HgN/A
12:00 AM63 °FPartly cloudy.3 mph94%30.07 "HgN/A
Weather by CustomWeather, © 2016

See weather overviewHow to use our weather pages